[Date Prev][Date Next][Thread Prev][Thread Next] - [Date Index][Thread Index][Author Index]

2 Line ISS Keps 8-5



ISS
1 25544U 98067A   01217.12617319  .00015507  00000-0  20883-3 0  3032
2 25544  51.6375 201.6546 0011472 338.2785 113.1577 15.57977092154720


----
Via the sarex mailing list at AMSAT.ORG courtesy of AMSAT-NA.
To unsubscribe, send "unsubscribe sarex" to Majordomo@amsat.org



AMSAT Top AMSAT Home